Location: B�hmh�f
(48.5667°N, 15.1667°E)
Time: 21:40:50
(UTC+00:00)

Daily predictions for brighter satellites

Satellite Brightness Start Highest point End
(mag) Time Altitude Azimuth Time Altitude Azimuth Time Altitude Azimuth
USA 307 3.0 15:34:48 10° SW 15:39:04 72° SSE 15:43:20 10° ENE
SMAP 3.5 15:36:00 10° SE 15:40:19 39° ENE 15:44:39 10° N
H-2A R/B 3.0 15:36:15 10° ESE 15:40:23 24° ENE 15:44:27 10° N
Cosmos 1766 Rocket 3.5 15:36:07 10° N 15:40:27 67° ENE 15:44:47 10° SSE
Meteor PRIRODA 3.6 15:37:02 10° SSE 15:40:37 59° ENE 15:44:12 10° N
Cosmos 1862 3.3 15:37:13 10° N 15:41:11 64° ENE 15:45:09 10° SSE
Cosmos 1939 Rocket 3.4 15:38:10 10° SE 15:42:01 39° ENE 15:45:52 10° N
ERBS 3.1 15:40:43 10° SSW 15:43:39 34° SE 15:46:36 10° ENE
Cosmos 1606 3.3 15:41:03 10° SSE 15:44:27 34° E 15:47:55 10° NNE
FengYun 1-2 T 4.3 15:39:28 10° SE 15:44:56 57° ENE 15:50:24 10° N
Cosmos 44 3.6 15:43:10 10° NNW 15:47:52 43° NE 15:52:15 10° ESE
ATLAS CENTAUR R/B 1.5 15:43:58 10° SW 15:48:05 82° NW 15:52:34 10° NE
Cosmos 2221 3.1 15:45:57 10° SSE 15:49:51 36° E 15:53:47 10° NNE
Cosmos 2098 Rocket 4.4 15:44:56 10° N 15:51:20 85° W 15:58:36 10° S
COSMO-SKYMED 1 4.3 15:52:35 10° ENE 15:54:46 13° E 15:56:56 10° ESE
CZ-2C R/B 4.0 15:53:18 10° NE 15:56:46 18° E 16:00:10 10° SE
NOAA 12 4.1 15:52:04 10° SSE 15:57:24 83° ENE 16:02:45 10° NNW
CZ-4C R/B 3.7 15:52:35 10° NW 15:58:09 28° NNE 16:04:34 10° ENE
USA 308 2.9 15:57:01 10° WSW 16:01:17 87° NNW 16:05:10 12° ENE
Okean O Rocket 2.8 16:01:09 10° ESE 16:04:28 21° ENE 16:07:48 10° NNE
ISS -3.3 16:06:04 10° W 16:09:24 50° N 16:11:56 16° ENE
Cosmos 1464 Rocket 4.0 16:06:00 10° S 16:12:19 74° E 16:18:42 10° NNE
YAOGAN 1 4.3 16:13:14 13° NE 16:13:14 13° NE 16:14:57 10° NNE
NOAA 6 4.0 16:08:40 10° SSE 16:13:49 79° ENE 16:18:58 10° NNW
Cosmos 1461 3.9 16:10:33 10° WSW 16:14:34 41° NW 16:18:28 10° NNE
Cosmos 1408 Rocket 3.4 16:14:58 10° N 16:19:20 81° E 16:23:42 10° SSE
Cosmos 2084 4.0 16:15:21 10° NNW 16:19:22 38° NE 16:23:05 12° ESE
Cosmos 1271 Rocket 3.5 16:16:33 10° SSW 16:20:24 55° WNW 16:24:20 10° N
NOSS 2-1 (E) 3.3 16:18:07 10° SW 16:21:19 57° NW 16:24:04 14° NNE
GEOS 3 Rocket 3.9 16:17:17 10° ESE 16:22:16 46° NE 16:27:13 10° NNW
CZ-4 R/B 3.5 16:24:23 11° NNE 16:24:23 11° NNE 16:24:45 10° NNE
CZ-4B R/B 4.0 16:18:37 10° S 16:22:41 49° W 16:26:34 10° NNW
Cosmos 1743 Rocket 3.7 16:19:28 10° N 16:23:42 49° ENE 16:27:54 10° SSE
Cosmos 1697 Rocket 3.1 16:18:34 10° NNW 16:23:53 41° NE 16:29:10 10° ESE
Cosmos 1980 Rocket 3.1 16:20:47 10° NNW 16:25:34 27° NE 16:28:49 16° E
Cosmos 1937 Rocket 4.1 16:21:07 10° N 16:25:59 34° ENE 16:30:48 10° ESE
Cosmos 1782 4.1 16:23:46 10° SE 16:26:41 20° E 16:26:58 20° E
Nadezhda 4 Rocket 4.0 16:20:44 10° N 16:27:04 81° E 16:33:24 10° SSE
USA 267 3.5 16:21:33 14° NE 16:27:20 66° NNW 16:33:48 10° WSW
Lacrosse 5 4.0 16:23:12 10° WNW 16:27:36 30° SW 16:31:59 10° S
Cosmos 1763 Rocket 4.0 16:23:09 10° SSE 16:27:43 35° ESE 16:31:14 16° NE
deb Kosmos-1763 3.8 16:24:25 10° SSW 16:27:50 87° WNW 16:30:54 13° NNE
SL-16 R/B 4.0 16:26:25 10° N 16:28:59 13° NNE 16:29:48 13° NE
Cosmos 1656 3.6 16:24:42 10° NNW 16:30:15 80° ENE 16:35:50 10° SSE
USA 305 3.2 16:26:31 10° W 16:30:41 59° NNW 16:33:22 21° NE
CZ-2C R/B 4.1 16:26:08 10° S 16:30:57 46° W 16:35:36 10° NNW
CZ-4B DEB 4.2 16:27:35 10° SSE 16:33:07 88° ENE 16:38:40 10° NNW
Cosmos 1340 Rocket 2.7 16:32:16 10° N 16:36:21 79° ENE 16:40:25 10° SSE
Cosmos 2082 Rocket 3.6 16:33:10 10° SE 16:36:39 17° E 16:36:39 17° E
Cosmos 1092 Rocket 4.0 16:31:03 10° N 16:37:21 60° ENE 16:43:35 10° SSE
Cosmos 1809 Rocket 4.5 16:32:29 10° N 16:38:29 54° ENE 16:44:25 10° SSE
USA 229 DEB 3.9 16:31:39 10° NW 16:38:53 68° NE 16:46:37 10° SE
USA 229 3.9 16:31:45 10° NW 16:38:59 67° NE 16:46:42 10° SE
Cosmos 990 Rocket 3.9 16:36:24 10° NNW 16:41:39 75° ENE 16:46:48 10° SSE
COSMOS 2406 4.0 16:36:42 10° SSE 16:41:39 30° ESE 16:43:56 23° ENE
SKYMED 2 4.1 16:40:36 19° NE 16:43:15 38° E 16:47:18 10° SSE
Lacrosse 5 rocket 2.7 16:40:57 10° NW 16:44:06 23° N 16:45:17 20° NNE
Cosmos 1602 3.8 16:42:56 10° N 16:46:42 51° ENE 16:50:27 10° SSE
ATLAS 2AS CENTAUR R/B 4.1 16:39:58 10° W 16:46:48 32° NNW 16:52:29 13° NE
USA 276 2.0 16:43:41 10° WNW 16:46:49 86° SSW 16:47:51 39° ESE
ATLAS CENTAUR R/B 3.2 16:38:50 10° SSW 16:48:35 52° SE 16:50:57 28° ENE
PAYLOAD B 4.3 16:43:07 10° SSE 16:48:44 88° WSW 16:54:24 10° NNW
Cosmos 1933 3.5 16:44:55 10° S 16:48:50 50° E 16:51:18 21° NNE
Cosmos 1428 Rocket 4.4 16:43:53 10° N 16:49:58 63° ENE 16:56:03 10° SSE
SJ 16-02 3.5 16:46:23 10° NW 16:50:09 29° W 16:53:55 10° SSW
Cosmos 372 Rocket 4.5 16:48:20 10° N 16:53:10 36° ENE 16:55:11 27° E
Cosmos 1500 Rocket 3.7 16:49:41 10° NNW 16:54:10 78° W 16:58:35 10° S
Cosmos 1627 Rocket 4.4 16:48:52 10° N 16:55:05 68° ENE 17:01:11 10° SSE
Cosmos 2034 Rocket 4.1 16:49:38 10° SSW 16:55:48 78° W 17:02:00 10° N
CZ-2D R/B 3.8 16:57:27 10° S 17:01:15 61° W 17:05:04 10° NNW
NOSS 3-1 (A) 4.1 16:54:55 10° NW 17:02:20 89° NE 17:11:05 10° SE
USA 306 3.5 16:58:32 10° W 17:02:40 47° NNW 17:04:00 34° NE
Meteor 1-20 Rocket 4.4 16:58:33 10° NNW 17:04:22 79° W 17:10:12 10° S
Cosmos 1805 Rocket 3.4 17:00:41 10° N 17:05:02 83° ENE 17:09:23 10° S
Cosmos 1833 Rocket 2.7 17:03:45 10° S 17:09:15 61° ESE 17:11:51 31° NE
Cosmos 2360 4.1 17:04:45 10° NNW 17:10:32 78° ENE 17:16:16 10° SSE
Cosmos 2279 Rocket 4.2 17:05:23 10° SSE 17:11:15 45° E 17:16:36 12° NNE
NOSS 2-2 (D) 4.3 17:08:07 10° NW 17:12:57 55° NE 17:15:23 34° ESE
CZ-4B R/B 3.2 17:07:59 10° SSE 17:13:27 80° WSW 17:18:52 10° NNW
Meteor 1-14 Rocket 4.3 17:08:29 10° N 17:14:08 53° ENE 17:19:52 10° SSE
NOSS 2-2 (E) 4.3 17:09:23 10° NW 17:14:26 65° NE 17:18:12 27° ESE
Sich 1 2.8 17:11:57 10° N 17:16:15 85° E 17:20:32 10° S
ARGOS 3.1 17:12:19 10° SSE 17:17:44 89° ENE 17:23:11 10° NNW
USA 307 3.5 17:15:03 10° W 17:19:11 45° NNW 17:19:51 41° NNE
H-2A R/B 2.7 17:14:21 10° S 17:19:30 56° W 17:24:32 10° NNW
ERBS 3.3 17:16:31 10° W 17:19:27 37° NNW 17:19:27 37° NNW
Cosmos 1898 Rocket 3.7 17:15:03 10° NNW 17:20:20 73° WSW 17:25:31 10° SSE
MOS 1-B Rocket 4.0 17:14:46 10° NNE 17:20:30 84° WNW 17:26:49 10° SSW
Cosmos 1634 Rocket 3.9 17:15:00 10° S 17:21:18 81° E 17:27:40 10° N
SL-24 R/B - RUBIN 2 3.9 17:19:02 10° NNW 17:23:11 48° NNE 17:23:11 48° NNE
Cosmos 1655 Rocket 4.4 17:19:17 10° N 17:24:56 40° ENE 17:24:56 40° ENE
COSMOS 2455 3.2 17:20:03 10° S 17:25:39 42° ESE 17:25:53 42° ESE
Landsat 5 3.3 17:27:18 74° ENE 17:27:32 78° ESE 17:31:38 10° S
Cosmos 468 Rocket 4.0 17:22:29 10° SSW 17:27:38 78° WNW 17:30:21 29° NNE
ATLAS CENTAUR R/B 3.6 17:24:29 10° WNW 17:27:41 20° NNW 17:29:27 16° N
COSMO-SKYMED 1 2.7 17:29:13 28° N 17:31:26 72° WNW 17:35:44 10° SSW
Meteor 2-16 Rocket 4.3 17:25:55 10° N 17:32:03 72° ENE 17:38:10 10° SSE
Cosmos 2026 Rocket 4.3 17:28:21 10° NNW 17:34:30 67° W 17:40:31 10° S
SL-08 RB Rocket 3.7 17:31:05 10° SSE 17:35:44 86° WSW 17:40:24 10° NNW
Cosmos 540 Rocket 3.3 17:31:11 10° SSW 17:36:16 79° ESE 17:37:03 63° NE
CZ-2C R/B 2.7 17:32:51 12° N 17:37:39 72° WNW 17:42:47 10° SSW
Okean O Rocket 2.4 17:36:09 10° S 17:40:29 52° W 17:44:52 10° NNW
Cosmos 1500 3.8 17:36:52 10° NNW 17:44:46 - S 17:40:06 53° WNW
USA 308 3.8 17:37:29 10° W 17:41:12 40° NNW 17:41:12 40° NNW
Cosmos 2360 Rocket 4.2 17:39:44 10° N 17:41:19 15° N 17:41:19 15° N
ISS -1.8 17:43:09 10° WNW 17:44:55 27° WNW 17:44:55 27° WNW
CZ-4C R/B 2.9 17:41:01 10° NW 17:47:58 65° NE 17:49:48 52° E
YAOGAN 1 3.9 17:50:22 31° NNW 17:50:22 31° NNW 17:52:40 10° NNW
Cosmos 2180 Rocket 4.4 17:42:05 10° S 17:48:23 66° E 17:49:36 54° NE
Meteor 1-5 Rocket 4.3 17:49:18 10° NNW 17:55:20 86° WSW 18:01:17 10° S
CZ-4 R/B 3.8 18:00:22 15° NNW 18:00:22 15° NNW 18:01:05 10° NNW
Cosmos 2369 4.0 17:54:07 10° NNW 17:59:48 65° WSW 18:02:24 33° S
Cosmos 2322 Rocket 3.9 17:55:23 10° NNW 17:57:35 20° N 17:57:35 20° N
Cosmos 1782 4.2 17:58:58 10° SW 18:02:36 38° W 18:02:36 38° W
Cosmos 1697 Rocket 4.0 18:02:40 10° NW 18:07:49 38° WSW 18:12:56 10° S
USA 267 3.8 18:08:54 41° NNE 18:09:50 43° N 18:15:55 10° WNW
Cosmos 1980 Rocket 2.4 18:04:25 10° NNW 18:10:04 68° WSW 18:10:40 63° SSW
NOSS 2-2 (C) 4.4 18:05:08 10° NW 18:10:17 74° SW 18:10:59 66° S
Cosmos 841 Rocket 3.8 18:05:45 10° SSW 18:10:09 61° WSW 18:10:09 61° WSW
SL-16 R/B 3.7 18:09:13 10° NNW 18:11:40 25° N 18:11:40 25° N
Cosmos 2333 Rocket 4.5 18:10:48 10° N 18:11:35 12° N 18:11:35 12° N
Cosmos 2082 Rocket 2.7 18:14:21 10° SSW 18:18:33 52° SW 18:18:33 52° SW
Lacrosse 5 rocket 4.0 18:20:13 10° NW 18:20:53 14° NW 18:20:53 14° NW
COSMOS 2406 3.8 18:20:07 10° SW 18:25:42 51° NW 18:26:02 51° NW
Cosmos 2278 4.2 18:20:12 10° NNW 18:24:48 56° NW 18:24:48 56° NW
ATLAS 2AS CENTAUR R/B 4.2 18:34:01 10° NW 18:39:54 25° N 18:39:54 25° N
Cosmos 1833 Rocket 4.3 18:48:46 10° WSW 18:53:35 29° NW 18:53:35 29° NW
COSMOS 2455 4.5 19:05:50 10° WSW 19:09:04 30° W 19:09:04 30° W
CZ-4C R/B 4.1 19:29:43 10° NW 19:35:02 38° W 19:35:02 38° W
